This is the latest recevied weather packets stored in our database for station/object WD0REW. If no packets are shown the sender has not sent any weather packets the latest 10 day(s).
| Time | Temp. | Humidity | Pressure | Rain* | Wind** | Luminosity | Snow |
|---|---|---|---|---|---|---|---|
| 1778012441 | 9.44° C | 86% | 1009.6 hPa | 0 mm | - | 96 W/m² | - |
| 1778012138 | 10° C | 87% | 1009.6 hPa | 0 mm | - | 60 W/m² | - |
| 1778011836 | 10° C | 88% | 1009.3 hPa | 0 mm | - | 80 W/m² | - |
| 1778011534 | 10° C | 88% | 1009.1 hPa | 0 mm | - | 126 W/m² | - |
| 1778011230 | 10° C | 87% | 1009.3 hPa | 0 mm | - | 101 W/m² | - |
| 1778010926 | 10° C | 89% | 1009.6 hPa | 0 mm | - | 144 W/m² | - |
| 1778010624 | 10° C | 89% | 1009.7 hPa | 1.78 mm | - | 103 W/m² | - |
| 1778010321 | 10° C | 89% | 1009.9 hPa | 1.78 mm | - | 97 W/m² | - |
| 1778010016 | 10° C | 87% | 1010.1 hPa | 0 mm | - | 77 W/m² | - |
| 1778009714 | 10.56° C | 86% | 1009.8 hPa | 0 mm | - | 46 W/m² | - |
| 1778009411 | 10.56° C | 85% | 1010.2 hPa | 0 mm | - | 51 W/m² | - |
| 1778009109 | 11.11° C | 83% | 1010 hPa | 0 mm | - | 47 W/m² | - |
| 1778008807 | 11.11° C | 82% | 1009.7 hPa | 0 mm | - | 57 W/m² | - |
| 1778008505 | 11.11° C | 80% | 1009.5 hPa | 0 mm | - | 78 W/m² | - |
| 1778008202 | 11.67° C | 79% | 1009.5 hPa | 0 mm | - | 63 W/m² | - |
| 1778007897 | 11.67° C | 78% | 1009.3 hPa | 0 mm | - | 90 W/m² | - |
| 1778007592 | 11.67° C | 77% | 1009.2 hPa | 0 mm | - | 84 W/m² | - |
| 1778007290 | 11.67° C | 78% | 1009.1 hPa | 0 mm | - | 79 W/m² | - |
| 1778006986 | 11.67° C | 78% | 1009.3 hPa | 0 mm | - | 54 W/m² | - |
| 1778006683 | 11.67° C | 77% | 1009.8 hPa | 0 mm | - | 70 W/m² | - |
| 1778006379 | 11.67° C | 79% | 1009.9 hPa | 0 mm | - | 60 W/m² | - |
| 1778006077 | 11.67° C | 77% | 1009.5 hPa | 0 mm | - | 63 W/m² | - |
| 1778005773 | 11.67° C | 77% | 1009.5 hPa | 0 mm | - | 56 W/m² | - |
| 1778005470 | 12.22° C | 76% | 1009.2 hPa | 0 mm | - | 86 W/m² | - |
| 1778005166 | 12.22° C | 77% | 1009.2 hPa | 0 mm | - | 85 W/m² | - |
* Rain latest hour (hover to see other rain measurements)
** Current wind speed in m/s (hover to see current wind gust speed)